Date String (YYYY-MM-DD hh:mm:ss) UTC,Instrument flags,Ambient pressure (hPa),Sample flow (lpm),Bypass flow (lpm),Sample temperature (°C),Ambient temperature (°C),ASC tube jacket temperature (°C),LED temperature (°C),Box temperature (°C),Sample RH (%),Span deviation,Mass concentration (μg/m³),Mass concentration (μg/m³),Mass concentration (μg/m³)
DateTimeUTC,F1_M11,P_M11,Q1_M11,Q2_M11,T1_M11,T2_M11,T3_M11,T4_M11,T5_M11,U1_M11,ZSPAN_M11,X0_M11,X2_M11,X1_M11
2022-05-31 17:00:00,,0826.3,5.01,0.00,26.3,25.5,00.0,35.1,28.3,18.7,0000.0,0006.21,0003.01,0002.21
2022-05-31 17:01:00,,0826.3,4.99,0.00,26.3,25.5,00.0,35.1,28.3,18.6,0000.0,0005.74,0003.02,0002.21
2022-05-31 17:02:00,,0826.4,5.00,0.00,26.3,25.5,00.0,35.1,28.3,18.2,0000.0,0005.66,0002.98,0002.21
2022-05-31 17:03:00,,0826.4,5.01,0.00,26.3,25.5,00.0,35.1,28.3,18.5,0000.0,0005.53,0002.95,0002.21
2022-05-31 17:04:00,,0826.4,4.99,0.00,26.3,25.5,00.0,35.1,28.3,18.5,0000.0,0005.78,0002.93,0002.22
2022-05-31 17:05:00,,0826.3,4.98,0.00,26.3,25.5,00.0,35.1,28.3,18.4,0000.0,0006.25,0002.91,0002.24
2022-05-31 17:06:00,,0826.4,5.01,0.00,26.4,25.5,00.0,35.2,28.3,18.4,0000.0,0006.69,0002.96,0002.26
2022-05-31 17:07:00,,0826.3,4.99,0.00,26.4,25.5,00.0,35.2,28.3,17.8,0000.0,0007.40,0002.99,0002.24
2022-05-31 17:08:00,,0826.4,5.01,0.00,26.4,25.5,00.0,35.2,28.4,17.9,0000.0,0007.13,0002.97,0002.22
2022-05-31 17:09:00,,0826.3,5.00,0.00,26.4,25.6,00.0,35.2,28.4,17.9,0000.0,0007.42,0002.97,0002.21
2022-05-31 17:10:00,,0826.3,5.01,0.00,26.4,25.6,00.0,35.2,28.4,18.4,0000.0,0007.40,0002.92,0002.20
2022-05-31 17:11:00,,0826.3,4.99,0.00,26.4,25.6,00.0,35.2,28.4,18.7,0000.0,0007.76,0002.90,0002.18
2022-05-31 17:12:00,,0826.3,5.01,0.00,26.4,25.6,00.0,35.2,28.4,19.2,0000.0,0007.79,0002.87,0002.16
2022-05-31 17:13:00,,0826.3,5.00,0.00,26.5,25.6,00.0,35.2,28.4,18.7,0000.0,0007.78,0002.90,0002.13
2022-05-31 17:14:00,,0826.4,5.00,0.00,26.5,25.6,00.0,35.3,28.4,18.3,0000.0,0007.87,0002.95,0002.13
2022-05-31 17:15:00,,0826.4,5.01,0.00,26.5,25.6,00.0,35.3,28.4,18.5,0000.0,0007.74,0002.94,0002.14
2022-05-31 17:16:00,,0826.5,5.00,0.00,26.5,25.7,00.0,35.3,28.5,18.9,0000.0,0007.42,0002.93,0002.14
2022-05-31 17:17:00,,0826.5,5.00,0.00,26.5,25.7,00.0,35.3,28.5,18.1,0000.0,0007.17,0002.92,0002.14
2022-05-31 17:18:00,,0826.5,4.99,0.00,26.5,25.7,00.0,35.3,28.5,18.3,0000.0,0006.61,0002.91,0002.15
2022-05-31 17:19:00,,0826.5,5.00,0.00,26.5,25.7,00.0,35.3,28.5,18.4,0000.0,0006.53,0002.91,0002.16
2022-05-31 17:20:00,,0826.5,5.01,0.00,26.5,25.7,00.0,35.3,28.5,18.8,0000.0,0006.83,0002.87,0002.14
2022-05-31 17:21:00,,0826.5,4.99,0.00,26.6,25.7,00.0,35.3,28.5,18.8,0000.0,0007.31,0002.87,0002.14
2022-05-31 17:22:00,,0826.5,4.99,0.00,26.6,25.7,00.0,35.4,28.5,17.4,0000.0,0008.12,0002.92,0002.17
2022-05-31 17:23:00,,0826.4,5.01,0.00,26.6,25.7,00.0,35.4,28.6,17.3,0000.0,0008.04,0002.93,0002.21
2022-05-31 17:24:00,,0826.5,5.01,0.00,26.6,25.8,00.0,35.4,28.6,17.2,0000.0,0007.99,0002.95,0002.25
2022-05-31 17:25:00,,0826.4,5.00,0.00,26.6,25.8,00.0,35.4,28.6,17.5,0000.0,0007.95,0002.94,0002.26
2022-05-31 17:26:00,,0826.5,5.00,0.00,26.6,25.8,00.0,35.4,28.6,17.6,0000.0,0008.16,0002.95,0002.26
2022-05-31 17:27:00,,0826.4,5.00,0.00,26.6,25.8,00.0,35.4,28.6,17.6,0000.0,0008.37,0002.97,0002.28
2022-05-31 17:28:00,,0826.4,4.99,0.00,26.6,25.8,00.0,35.4,28.6,17.6,0000.0,0008.31,0003.00,0002.29
2022-05-31 17:29:00,,0826.4,5.00,0.00,26.7,25.8,00.0,35.5,28.6,17.3,0000.0,0008.28,0003.02,0002.30
2022-05-31 17:30:00,,0826.4,5.01,0.00,26.7,25.8,00.0,35.5,28.6,17.2,0000.0,0008.33,0003.04,0002.32
2022-05-31 17:31:00,,0826.4,5.00,0.00,26.7,25.9,00.0,35.5,28.7,17.4,0000.0,0008.56,0003.03,0002.36
2022-05-31 17:32:00,,0826.4,5.00,0.00,26.7,25.9,00.0,35.5,28.7,17.3,0000.0,0008.15,0003.05,0002.39
2022-05-31 17:33:00,,0826.5,5.00,0.00,26.7,25.9,00.0,35.5,28.7,17.1,0000.0,0007.10,0003.06,0002.40
2022-05-31 17:34:00,,0826.5,4.99,0.00,26.7,25.9,00.0,35.5,28.7,17.3,0000.0,0007.91,0003.04,0002.38
2022-05-31 17:35:00,,0826.5,5.00,0.00,26.7,25.9,00.0,35.5,28.7,17.4,0000.0,0007.89,0002.98,0002.37
2022-05-31 17:36:00,,0826.4,5.00,0.00,26.8,26.0,00.0,35.5,28.7,17.4,0000.0,0007.80,0002.93,0002.36
2022-05-31 17:37:00,,0826.5,5.01,0.00,26.8,26.0,00.0,35.6,28.7,17.3,0000.0,0007.57,0002.90,0002.37
2022-05-31 17:38:00,,0826.5,4.99,0.00,26.8,26.0,00.0,35.6,28.8,17.4,0000.0,0007.63,0002.90,0002.37
2022-05-31 17:39:00,,0826.5,5.02,0.00,26.8,26.0,00.0,35.6,28.8,17.7,0000.0,0007.68,0002.88,0002.38
2022-05-31 17:40:00,,0826.5,4.99,0.00,26.8,26.0,00.0,35.6,28.8,18.1,0000.0,0008.25,0002.83,0002.39
2022-05-31 17:41:00,,0826.5,4.99,0.00,26.8,26.0,00.0,35.6,28.8,17.3,0000.0,0008.23,0002.82,0002.39
2022-05-31 17:42:00,,0826.5,5.01,0.00,26.9,26.0,00.0,35.6,28.8,17.4,0000.0,0007.68,0002.85,0002.42
2022-05-31 17:43:00,,0826.5,5.00,0.00,26.9,26.1,00.0,35.6,28.8,17.7,0000.0,0007.59,0002.89,0002.41
2022-05-31 17:44:00,,0826.5,5.00,0.00,26.9,26.1,00.0,35.7,28.8,17.5,0000.0,0008.24,0002.88,0002.39
2022-05-31 17:45:00,,0826.6,4.99,0.00,26.9,26.1,00.0,35.7,28.9,17.3,0000.0,0007.78,0002.88,0002.39
2022-05-31 17:46:00,,0826.5,4.99,0.00,26.9,26.1,00.0,35.7,28.9,17.4,0000.0,0007.62,0002.89,0002.39
2022-05-31 17:47:00,,0826.6,5.01,0.00,26.9,26.1,00.0,35.7,28.9,17.6,0000.0,0007.70,0002.92,0002.39
2022-05-31 17:48:00,,0826.5,5.00,0.00,26.9,26.1,00.0,35.7,28.9,17.7,0000.0,0007.70,0002.93,0002.39
2022-05-31 17:49:00,,0826.5,4.99,0.00,26.9,26.1,00.0,35.7,28.9,17.5,0000.0,0007.81,0002.93,0002.38
2022-05-31 17:50:00,,0826.5,5.00,0.00,27.0,26.2,00.0,35.8,28.9,17.5,0000.0,0008.95,0002.95,0002.37
2022-05-31 17:51:00,,0826.5,4.99,0.00,27.0,26.2,00.0,35.8,28.9,17.4,0000.0,0008.43,0003.00,0002.39
2022-05-31 17:52:00,,0826.5,5.00,0.00,27.0,26.2,00.0,35.8,29.0,17.7,0000.0,0008.43,0003.02,0002.39
2022-05-31 17:53:00,,0826.5,5.02,0.00,27.0,26.2,00.0,35.8,29.0,17.8,0000.0,0008.69,0002.98,0002.36
2022-05-31 17:54:00,,0826.5,5.00,0.00,27.0,26.2,00.0,35.8,29.0,17.5,0000.0,0009.02,0002.97,0002.37
2022-05-31 17:55:00,,0826.6,4.99,0.00,27.0,26.2,00.0,35.8,29.0,17.4,0000.0,0008.45,0003.02,0002.40
2022-05-31 17:56:00,,0826.6,5.00,0.00,27.0,26.2,00.0,35.8,29.0,17.1,0000.0,0008.30,0003.06,0002.43
2022-05-31 17:57:00,,0826.7,5.00,0.00,27.1,26.2,00.0,35.8,29.0,17.2,0000.0,0008.30,0003.06,0002.44
2022-05-31 17:58:00,,0826.6,4.99,0.00,27.1,26.3,00.0,35.9,29.0,17.0,0000.0,0008.25,0003.02,0002.43
2022-05-31 17:59:00,,0826.6,5.00,0.00,27.1,26.3,00.0,35.9,29.0,16.9,0000.0,0008.32,0003.06,0002.44
